User: anonymous   Login
Location: Brno
(49.2000°N, 16.6330°E)
Time: 02:42:33
(UTC+01:00)
Language:

BREEZE M DEB (TANK) - Orbit

View from above orbital plane
View from above orbital plane
View from above satellite
View from above satellite

Ground track
Ground track

The orbit data is extracted from the following two-line orbital elements,

1 28359U 04022B   17021.48224214  .00003789  00000-0  42362-3 0  9990
2 28359  49.4918 193.3278 4675424 103.3034 311.3263  6.19524186276199
Epoch (UTC): 21 January 2017 11:34:25
Eccentricity: 0.4675424
inclination: 49.4918°
perigee height: 289 km
apogee height: 11999 km
right ascension of ascending node: 193.3278°
argument of perigee: 103.3034°
revolutions per day: 6.19524186
mean anomaly at epoch: 311.3263°
orbit number at epoch: 27619

The dashed part of the orbit path shows where the satellite is in the earth's shadow,  

DLR